#timestamp,LO_Frequency,Hit,StdDev 
1506142815.7,286047015.2,N
1506142835.5,286047017.0,N
1506142855.3,286047014.0,N
1506142875.2,286047011.3,N
1506142895.9,286047012.7,N
1506142915.7,286047016.3,N
1506142935.6,286047016.5,N
1506142955.4,286047018.7,N
1506142975.2,286047018.4,N
1506142995.1,286047018.4,N
1506142996.0,286047018.4,N
1506143015.8,286047017.3,N
1506143035.6,286047017.7,N
1506143055.4,286047018.3,N
1506143075.3,286047017.9,N
1506143095.1,286047014.5,N
1506143115.8,286047015.7,N
1506143135.7,286047012.5,N
1506143155.5,286047014.6,N
1506143175.3,286047010.9,N
1506143195.2,286047013.2,Y
1506143215.0,286046998.4,P
1506143215.9,286046998.4,N
1506143235.7,286047002.7,N
1506143255.6,286047000.7,N
1506143275.4,286047005.5,N
1506143295.2,286047006.1,N
1506143315.1,286047006.4,N
1506143316.0,286047006.4,N
1506143335.8,286047005.7,N
1506143355.6,286047004.1,N
1506143375.5,286047003.6,N
1506143395.3,286047000.3,N
1506143415.1,286046996.7,N
1506143435.9,286046998.5,N
1506143455.7,286046998.8,N
1506143475.5,286047002.6,N
1506143495.4,286046998.1,N
1506143515.2,286046998.0,N
1506143535.0,286046995.3,N
1506143535.9,286046995.3,N
1506143555.8,286046993.9,N
1506143575.6,286046991.7,N
1506143595.4,286046992.1,N
1506143615.2,286046993.8,N
1506143635.1,286046994.2,N
1506143636.0,286046994.2,N
1506143655.8,286046993.5,N
1506143675.6,286046995.3,N
1506143695.5,286046993.7,N
1506143715.3,286046995.6,N
1506143735.1,286046994.6,N
1506143755.9,286046994.2,N
1506143775.7,286046996.4,N
1506143795.5,286046994.0,N
1506143815.4,286046994.4,N
1506143835.2,286046994.1,N
1506143855.0,286046996.3,N
1506143855.9,286046996.3,N
1506143875.8,286046991.9,N
1506143895.6,286046992.5,N
1506143915.4,286046991.1,Y
1506143935.3,286046997.8,P
1506143955.1,286046997.5,N
1506143956.0,286046997.5,N
1506143975.8,286046995.1,Y
1506143995.7,286046998.6,P
1506144015.5,286046999.4,N
1506144035.3,286046997.3,N
1506144055.2,286046993.4,Y
1506144075.9,286046994.2,P
1506144095.7,286046992.5,P
1506144115.6,286046991.1,P
1506144135.4,286046989.2,Y
1506144155.2,286046993.7,P
1506144175.1,286046993.5,P
1506144176.0,286046993.5,P
1506144195.8,286046995.3,Y
1506144215.6,286047000.8,P
1506144235.5,286046998.8,N
1506144255.3,286046996.5,N
1506144275.1,286046997.8,N
1506144295.9,286046996.8,N
1506144315.7,286046996.6,N
1506144335.5,286046997.6,N
1506144355.3,286046997.9,N
1506144375.2,286046995.9,N
1506144395.0,286046993.3,Y
1506144395.9,286046993.3,P
1506144415.8,286046999.4,N
1506144435.6,286046997.5,N
1506144455.4,286046995.8,N
1506144475.2,286046999.0,N
1506144495.1,286047001.0,N
1506144496.0,286047001.0,N
1506144515.8,286047002.4,N
1506144535.6,286047005.9,N
1506144555.5,286047004.1,N
1506144575.3,286047005.5,N
1506144595.1,286047007.3,N
1506144615.9,286047009.2,N
1506144635.7,286047010.6,N
1506144655.5,286047011.2,N
1506144675.4,286047015.6,N
1506144695.2,286047015.1,N
1506144715.0,286047016.1,N
1506144715.9,286047016.1,N
1506144735.7,286047020.4,N
1506144755.6,286047018.2,N
1506144775.4,286047015.7,N
1506144795.2,286047019.7,N
1506144815.1,286047019.6,N
1506144816.0,286047019.6,N
1506144835.8,286047022.0,N
1506144855.6,286047020.9,N
1506144875.5,286047023.3,N
1506144895.3,286047024.7,N
1506144915.1,286047024.6,N
1506144935.9,286047025.1,N
1506144955.7,286047018.9,N
1506144975.5,286047019.1,N
1506144995.4,286047021.7,N
1506145015.2,286047022.4,N
1506145035.0,286047022.3,Y
1506145035.9,286047022.3,P
1506145055.8,286047008.5,N
1506145075.6,286047013.0,N
1506145095.4,286047015.0,Y
1506145115.3,286046996.9,P
1506145135.1,286046996.6,N
1506145136.0,286046996.6,N
1506145155.8,286046997.4,N
1506145175.7,286046996.3,N
1506145195.5,286046995.3,N
1506145215.3,286046993.6,N
1506145235.1,286046992.1,N
1506145255.9,286046991.6,N
1506145275.7,286046988.7,N
1506145295.5,286046991.1,N
1506145315.4,286046989.4,N
1506145335.2,286046987.3,N
1506145355.0,286046987.5,N
1506145355.9,286046987.5,N
1506145375.8,286046991.1,N
1506145395.6,286046990.4,N
1506145415.4,286046990.3,N
1506145435.3,286046988.9,N
1506145455.1,286046987.3,N
1506145456.0,286046987.3,N
1506145475.8,286046987.1,N
1506145495.7,286046985.8,N
1506145515.5,286046985.1,N
1506145535.3,286046980.9,Y
1506145555.2,286046989.7,P
1506145575.9,286046991.5,P
1506145595.7,286046991.3,P
1506145615.6,286046991.3,Y
1506145635.4,286047002.3,P
1506145655.2,286047003.2,N
1506145675.1,286047003.1,N
1506145676.0,286047003.1,N
1506145695.8,286047008.3,N
1506145715.6,286047010.7,N
1506145735.4,286047007.7,N
1506145755.3,286047009.4,N
1506145775.1,286047009.7,N
1506145795.8,286047011.2,N
1506145815.7,286047011.3,N
1506145835.5,286047015.5,N
1506145855.3,286047015.5,N
1506145875.2,286047013.4,N
1506145895.9,286047016.9,N
1506145915.7,286047015.7,N
1506145935.6,286047017.1,N
1506145955.4,286047014.1,N
1506145975.2,286047014.9,N
1506145995.1,286047014.4,N
1506145996.0,286047014.4,N
1506146015.8,286047015.6,N
1506146035.6,286047018.3,N
1506146055.5,286047017.0,N
1506146075.3,286047016.9,N
1506146095.1,286047015.8,N
1506146115.8,286047016.3,N
1506146135.7,286047016.0,N
1506146155.5,286047015.7,N
1506146175.3,286047017.5,N
1506146195.2,286047019.6,Y
1506146215.0,286047006.7,P
1506146215.9,286047006.7,N
1506146235.7,286047003.6,N
1506146255.6,286047004.3,N
1506146275.4,286047005.6,N
1506146295.2,286047007.2,N
1506146315.1,286047006.0,N
1506146316.0,286047006.0,N
1506146335.8,286047003.9,N
1506146355.6,286047001.3,N
1506146375.5,286047000.2,N
1506146395.3,286047001.3,N
